Track COSMOS 1535 now! 10-day predictions COSMOS 1535 is classified as:
1 14679U 84010A 18111.85903264 .00000041 00000-0 26338-4 0 9990 2 14679 82.9613 197.1225 0042161 11.6484 126.4433 13.75087890685801